Overview Statistics Trail Chart Weather Telemetry Raw packets
 

This is the latest recevied weather packets stored in our database for station/object EA1GHG-11. If no packets are shown the sender has not sent any weather packets the latest 10 day(s).

<< 11 12 13 14 15 16 17 >>
Time Temp. Humidity Pressure Rain* Wind** Luminosity Snow
1788121298 16.67° C 100% 1025.6 hPa - - - -
1788119798 17.22° C 100% 1025.1 hPa - - - -
1788118298 17.78° C 100% 1024.7 hPa - - - -
1788104199 22.78° C 100% 1023.7 hPa - - - -
1788102699 23.33° C 100% 1023.7 hPa - - - -
1788101199 23.89° C 92% 1023.6 hPa - - - -
1788099698 23.33° C 100% 1023.8 hPa - - - -
1788098198 22.78° C 100% 1023.9 hPa - - - -
1788096697 22.78° C 100% 1023.8 hPa - - - -
1788091597 22.78° C 100% 1024.4 hPa - - - -
1788090097 22.78° C 100% 1024.5 hPa - - - -
1788088604 23.89° C 100% 1024.5 hPa - - - -
1788087097 21.11° C 100% 1024.5 hPa - - - -
1788085597 22.78° C 100% 1024.4 hPa - - - -
1788084097 21.67° C 100% 1024.4 hPa - - - -
1788082597 21.67° C 100% 1024.2 hPa - - - -
1788081097 20° C 100% 1024.1 hPa - - - -
1788079597 19.44° C 100% 1023.9 hPa - - - -
1788078096 19.44° C 100% 1024 hPa - - - -
1788076596 16.67° C 100% 1024.1 hPa - - - -
1788075096 16.11° C 100% 1024 hPa - - - -
1788074498 15.56° C 100% 1023.8 hPa - - - -
1788072998 16.11° C 100% 1023.5 hPa - - - -
1788071497 15° C 100% 1023.5 hPa - - - -
1788069997 15° C 100% 1023.4 hPa - - - -

* Rain since midnight (hover to see other rain measurements)
** Current wind speed in m/s (hover to see current wind gust speed)